Погода в Зеволде

Нидерланды     52°19′41″N   5°32′10″E
темп.,
°C
ветер,
м/с
пор.,
м/с
влажн.,
%
обл.,
%
осадки,
мм/ч
давл.,
гПа
погр.,
м
24 января, пн
пн2401:00+2ю22935 0.0 103534
04:00+2ю22905 0.0 103413
07:00+1ююв22914 0.0 103411
10:00+3ю12875 0.0 103460
13:00+5св00724 0.0 1034436
16:00+5ссз11744 0.0 103313
19:00+2ссв22864 0.0 103411
22:00+2св11894 0.0 103410
25 января, вт
вт2501:00+1св11900 0.0 103510
04:00+1всв01900 0.0 103410
07:00+1зсз01910 0.0 103410
10:00+2юз00860 0.0 103444
13:00+6з00730 0.0 1034348
16:00+5зюз11790 0.0 103310
19:00+2з11880 0.0 103410
22:00+1зюз11900 0.0 103410
26 января, ср
ср2601:00+1зюз22924 0.0 103416
04:00+1зюз229512 0.0 103331
07:00+1юз33960 0.0 103337
10:00+2зюз36948 0.0 1033166
13:00+7зюз4580100 0.0 1033410
16:00+5зюз3587100 0.0 1032130
19:00+3юз379497 0.0 1031131
22:00+2юз4119691 0.0 1030225
27 января, чт
чт2701:00+3юз5139577 0.0 1028362
04:00+3юз61496100 0.0 1026422
07:00+4юз71589100 0.0 1024470
10:00+6з71389100 0.6 1023614
13:00+7з61394100 1.6 1023830
16:00+7зсз6128036 0.2 1023957
19:00+5сз714795 0.3 1025712
22:00+5сз714785 0.0 1027654
28 января, пт
пт2801:00+5сз613795 0.0 1028562
04:00+5сз613845 0.1 1030505
07:00+4сз511905 0.3 1032332
10:00+4сз41090100 0.1 1034458
13:00+7сз577661 0.1 1035827
16:00+7сз478011 0.4 1035536
19:00+4з359396 0.4 1035112
22:00+3зюз389468 0.0 1035170